Wind_Speed
31 32 32 31 30 28 28 27 25 23 22 20 18 18 17 15 15 15 15 15 16 16 16 15 16 18 17 17 17 17 16 15 14 13 13 13 13 13 12 12 11 11
34 34 34 34 34 32 29 27 24 21 21 21 20 19 18 17 16 16 16 17 16 15 15 15 17 18 17 17 17 17 17 16 15 14 14 14 13 12 12 12 11 12
34 35 36 36 36 35 32 26 22 21 20 19 18 17 17 17 16 17 17 17 17 16 15 16 17 17 17 18 18 18 17 16 16 15 15 14 12 11 12 12 12 13
31 34 36 36 35 37 35 28 21 19 17 15 16 17 17 17 17 18 19 18 18 17 17 17 18 19 19 19 19 18 18 17 16 16 15 14 12 12 12 12 13 13
28 30 32 33 34 35 36 32 23 18 16 14 15 16 16 17 18 18 18 19 19 19 18 19 20 19 20 21 21 19 18 17 16 16 15 14 13 13 14 13 13 13
24 26 28 31 33 33 34 30 21 16 16 15 15 14 14 16 18 18 18 20 21 21 20 20 20 19 19 21 21 20 19 17 16 15 15 14 14 14 14 14 13 13
20 22 25 28 28 28 31 28 19 15 15 15 15 15 14 16 17 18 19 21 22 22 21 20 19 18 18 19 19 18 17 15 15 14 14 14 14 14 14 13 13 13
15 18 21 24 24 26 28 25 18 14 14 15 16 15 14 15 17 18 19 20 20 20 20 19 18 18 17 17 16 15 13 13 14 13 13 13 13 14 13 13 12 13
12 12 14 15 17 22 23 18 14 13 14 16 17 16 16 16 17 18 18 19 19 18 17 17 17 17 16 14 12 12 12 13 14 13 12 13 13 13 13 12 12 12
10 5 5 4 4 10 13 11 13 15 16 18 18 17 17 18 19 20 19 19 19 17 17 17 17 16 15 14 12 12 13 14 14 13 13 14 13 13 13 13 13 12
9 5 5 4 3 4 6 8 12 15 17 18 18 18 19 20 21 22 21 20 19 18 17 18 18 17 16 16 15 15 15 16 15 15 15 14 14 14 14 14 13 13
9 7 7 7 8 8 9 10 12 15 17 18 18 18 20 21 23 23 22 21 20 19 19 18 18 18 18 17 17 16 17 17 17 17 16 15 15 15 15 15 14 13
10 9 10 10 11 11 11 12 13 15 17 18 18 19 21 22 24 24 24 24 24 23 22 21 19 19 19 19 18 17 17 17 17 17 17 16 16 15 15 14 14 13
11 11 11 12 14 14 14 14 15 16 16 17 19 20 22 23 24 25 27 27 26 25 24 21 19 19 19 19 18 17 17 17 17 17 16 16 15 15 15 14 13 13
11 11 11 12 14 15 16 16 17 17 17 17 20 22 23 23 24 25 25 25 24 23 21 20 19 20 20 19 18 17 16 17 16 16 15 15 15 15 14 14 13 13
10 10 11 11 12 14 15 16 17 18 18 18 21 23 23 23 24 23 21 22 23 22 20 19 19 20 20 19 18 17 17 16 15 15 15 14 14 14 14 14 14 14
10 10 9 9 9 11 13 15 16 18 19 19 20 22 22 22 23 20 19 21 24 23 21 19 19 20 20 19 19 18 17 16 15 15 15 14 14 15 15 15 15 15
9 9 8 7 6 9 13 15 16 17 18 18 19 20 20 21 21 20 21 23 25 26 23 20 20 20 20 20 20 19 18 16 16 16 15 15 15 15 15 15 15 15
9 8 9 9 6 7 12 13 14 15 16 16 17 18 18 19 20 21 23 25 27 28 24 21 21 21 21 21 21 19 18 18 17 17 16 15 14 14 15 15 15 15
7 7 8 10 9 6 9 10 11 13 14 14 16 17 17 18 19 21 24 25 27 28 25 22 21 21 22 23 22 20 20 19 18 17 16 15 14 14 15 15 15 15
7 6 6 8 10 7 6 9 9 10 12 14 15 15 16 18 21 23 24 25 26 27 24 22 22 22 23 23 22 21 20 20 19 17 16 15 14 15 15 15 15 15
7 6 6 7 9 10 7 7 10 11 11 12 12 12 15 20 22 22 23 24 25 25 23 22 22 23 24 23 22 22 21 21 20 18 17 16 16 16 16 16 16 17
7 5 5 7 8 10 9 6 9 10 11 12 13 13 16 20 21 21 21 22 23 22 22 22 23 23 23 23 22 22 22 21 21 19 18 17 17 17 18 18 18 18
7 5 5 5 7 9 9 7 6 7 9 12 14 16 18 20 22 22 20 20 21 21 21 22 22 22 22 22 22 22 21 20 20 19 19 19 19 19 19 19 20 20
7 7 5 5 5 7 8 7 6 6 7 11 16 18 18 19 22 22 19 19 19 19 20 20 20 20 20 21 21 20 19 19 18 18 19 20 20 20 20 21 21 21
6 7 6 5 6 7 7 8 8 7 5 9 15 15 12 15 20 21 18 17 16 16 17 18 18 18 18 18 18 17 17 17 17 17 19 19 20 21 22 23 24 24
Wind_Direction
263 261 260 258 255 252 252 253 253 253 255 255 246 235 223 214 211 214 217 216 212 209 207 206 207 208 209 212 216 219 221 223 222 223 226 227 227 227 225 224 223 226
262 260 258 257 255 252 253 254 253 253 254 250 243 234 223 214 206 207 213 215 213 210 206 205 206 208 211 213 216 219 221 222 222 223 228 228 227 225 222 222 225 228
265 261 258 257 257 254 255 258 254 253 254 248 246 243 230 221 212 207 211 212 211 210 208 208 208 208 211 213 215 217 219 219 219 221 225 227 228 226 222 223 227 230
267 263 259 259 258 254 254 260 262 265 265 252 247 242 227 221 218 213 214 211 208 209 209 211 213 211 210 212 211 213 215 215 215 216 218 221 225 228 228 227 228 230
267 261 258 257 257 254 254 258 266 276 275 258 250 242 226 219 217 216 219 214 208 207 208 215 220 217 215 212 207 207 209 209 209 210 211 215 220 224 225 225 225 227
266 258 254 252 253 254 252 250 257 272 270 260 256 246 230 223 217 214 220 219 211 206 206 215 224 224 223 218 210 205 203 202 204 207 207 211 215 218 220 220 220 221
271 258 253 249 249 251 246 240 245 260 261 257 254 243 230 225 221 216 219 223 219 211 206 210 220 225 226 223 215 206 198 196 203 206 206 209 210 213 216 216 216 217
283 259 256 251 249 248 240 233 237 249 252 254 255 247 233 226 223 219 219 223 226 223 214 208 214 223 227 223 216 205 195 198 204 205 206 210 210 210 212 212 214 216
299 260 263 263 255 245 232 227 238 245 246 248 249 246 235 224 220 219 220 222 225 227 224 215 213 220 225 225 218 207 201 206 209 208 210 213 212 209 208 209 212 215
331 288 293 303 261 233 222 228 245 244 241 241 242 241 232 223 219 220 223 224 223 223 224 221 218 218 218 219 219 214 213 214 213 212 213 213 212 210 208 208 211 212
338 327 311 300 286 261 244 250 254 247 240 239 240 238 229 222 220 221 224 225 222 219 219 220 218 215 214 215 217 217 217 216 214 213 212 210 210 211 209 207 208 208
313 297 283 273 272 272 264 258 254 248 243 240 240 237 229 223 222 222 225 226 222 215 211 212 214 213 213 214 215 216 217 215 213 210 209 207 208 210 209 206 204 202
300 284 271 262 260 259 256 253 250 248 245 242 239 232 227 225 223 222 223 222 220 212 203 201 206 212 214 214 213 213 212 211 209 207 206 206 207 208 207 204 201 199
296 285 273 263 256 250 248 247 247 248 246 241 236 230 226 226 224 224 225 221 216 211 202 197 202 211 215 215 212 210 208 206 205 204 204 205 206 206 205 202 200 198
297 287 276 267 258 249 245 243 244 246 245 240 236 228 222 221 222 225 228 224 218 213 204 196 203 213 216 215 211 208 206 202 199 199 201 203 205 205 204 200 198 199
310 297 284 274 263 249 242 238 237 239 238 238 238 229 217 215 221 225 227 225 220 213 202 199 208 216 216 215 209 205 203 199 193 192 195 198 200 200 200 197 197 200
319 309 296 286 268 249 241 236 235 236 232 230 235 231 216 212 221 226 225 222 215 204 199 203 213 217 217 212 204 200 199 192 187 188 192 194 195 194 194 195 198 201
330 322 312 307 279 246 239 236 234 235 233 227 227 227 218 214 221 225 222 217 208 201 200 206 213 217 216 209 201 197 194 187 185 189 191 193 193 192 192 194 196 201
340 336 327 329 312 251 238 237 230 228 232 230 223 221 220 219 221 220 216 212 206 201 201 208 215 217 212 205 199 195 191 188 189 191 192 194 195 194 194 194 196 201
345 347 340 338 328 278 233 227 224 225 232 234 226 221 220 221 221 215 212 212 206 200 202 211 216 214 210 205 199 194 192 193 194 196 197 196 196 197 198 199 200 203
343 351 354 349 339 316 250 219 220 232 236 233 229 224 216 217 219 215 212 209 202 199 206 216 215 211 210 206 199 196 197 198 199 200 202 200 200 202 203 204 205 208
345 353 3 3 356 340 304 240 224 232 230 217 214 217 214 213 214 210 205 202 200 204 213 216 212 211 209 205 201 200 201 201 202 203 205 206 206 206 207 209 210 211
349 353 0 2 4 355 332 276 233 231 226 207 197 202 209 208 202 199 199 200 203 209 214 212 211 210 207 204 204 204 203 203 203 203 207 210 211 211 212 212 213 214
350 342 337 346 2 7 353 318 270 247 233 217 202 200 205 202 194 193 199 201 203 206 209 209 209 208 205 204 206 206 205 207 206 206 209 213 214 214 215 215 216 217
357 350 336 334 358 15 16 0 326 291 255 226 209 204 210 207 195 191 195 199 201 203 206 208 208 206 205 206 208 207 207 208 208 207 210 215 216 216 218 221 222 221
5 17 14 9 12 18 29 32 16 347 297 232 207 202 213 211 194 186 192 201 203 205 207 207 208 208 207 208 209 208 208 210 210 212 217 221 221 220 222 225 226 226
Height
3125 3125 3125 3125 3124 3123 3124 3124 3125 3126 3127 3127 3129 3129 3129 3130 3131 3132 3134 3134 3135 3137 3138 3138 3139 3141 3142 3143 3144 3145 3146 3147 3148 3149 3150 3151 3153 3154 3155 3156 3157 3158
3121 3121 3122 3121 3121 3120 3120 3121 3123 3124 3125 3125 3126 3127 3128 3128 3129 3131 3132 3133 3134 3135 3136 3137 3138 3140 3141 3142 3143 3144 3145 3145 3146 3147 3148 3150 3152 3153 3154 3155 3156 3157
3117 3118 3118 3118 3118 3118 3118 3118 3121 3123 3124 3124 3125 3126 3127 3128 3129 3129 3130 3131 3132 3133 3134 3136 3137 3138 3140 3141 3142 3142 3143 3144 3145 3146 3147 3148 3150 3151 3152 3154 3154 3155
3113 3113 3114 3114 3114 3115 3116 3117 3120 3123 3125 3124 3124 3124 3125 3126 3127 3128 3128 3129 3130 3131 3133 3134 3135 3136 3138 3139 3140 3141 3142 3142 3143 3144 3146 3147 3148 3149 3151 3152 3153 3154
3107 3108 3109 3109 3110 3111 3115 3118 3121 3123 3124 3123 3122 3122 3123 3124 3125 3126 3127 3128 3129 3130 3131 3132 3133 3135 3136 3138 3139 3140 3141 3141 3142 3143 3145 3146 3147 3148 3150 3151 3152 3153
3102 3102 3103 3103 3105 3109 3113 3116 3118 3120 3121 3120 3121 3122 3122 3122 3124 3125 3126 3126 3127 3128 3129 3130 3131 3133 3135 3137 3138 3139 3140 3141 3142 3142 3144 3145 3146 3147 3149 3150 3151 3152
3097 3098 3098 3099 3102 3106 3109 3112 3114 3116 3117 3118 3119 3120 3120 3121 3122 3123 3123 3124 3125 3126 3128 3128 3129 3130 3132 3135 3137 3139 3140 3140 3141 3141 3142 3144 3145 3146 3147 3148 3149 3150
3094 3095 3095 3097 3100 3103 3105 3109 3111 3113 3114 3116 3117 3118 3118 3118 3120 3121 3122 3123 3124 3126 3127 3127 3128 3129 3130 3133 3136 3137 3138 3139 3139 3140 3141 3142 3144 3145 3146 3147 3148 3149
3093 3093 3094 3095 3097 3099 3103 3106 3108 3110 3112 3112 3113 3115 3116 3116 3118 3119 3120 3121 3122 3124 3126 3126 3126 3127 3129 3131 3132 3134 3136 3137 3138 3138 3140 3141 3142 3143 3145 3146 3147 3148
3093 3093 3094 3095 3095 3097 3101 3103 3105 3107 3108 3109 3110 3111 3113 3114 3115 3116 3118 3119 3120 3121 3123 3124 3125 3126 3127 3129 3130 3132 3134 3135 3136 3137 3138 3140 3141 3142 3143 3144 3145 3146
3094 3094 3094 3095 3095 3097 3099 3101 3102 3104 3105 3106 3107 3108 3110 3111 3112 3114 3115 3117 3118 3119 3120 3122 3123 3125 3126 3127 3129 3131 3132 3133 3134 3136 3137 3138 3140 3141 3142 3143 3144 3145
3094 3094 3094 3095 3095 3096 3098 3099 3100 3102 3102 3104 3105 3106 3107 3108 3110 3111 3113 3114 3116 3117 3118 3119 3121 3123 3125 3126 3128 3129 3131 3132 3133 3135 3136 3137 3139 3140 3141 3142 3143 3144
3093 3093 3093 3094 3094 3095 3096 3097 3099 3100 3100 3101 3102 3103 3105 3106 3107 3109 3110 3111 3112 3113 3114 3116 3119 3121 3123 3125 3127 3128 3130 3131 3132 3134 3135 3137 3138 3139 3140 3141 3142 3143
3092 3091 3092 3092 3092 3093 3094 3095 3096 3097 3098 3099 3099 3100 3101 3103 3104 3106 3107 3108 3109 3111 3112 3113 3116 3119 3122 3124 3125 3127 3128 3130 3131 3133 3134 3135 3137 3137 3139 3140 3141 3142
3090 3090 3089 3090 3090 3091 3091 3092 3094 3094 3095 3095 3096 3096 3097 3100 3101 3103 3106 3107 3109 3111 3112 3112 3115 3118 3120 3122 3124 3125 3127 3129 3130 3132 3133 3134 3135 3136 3138 3139 3140 3141
3088 3088 3087 3087 3088 3088 3088 3089 3091 3091 3091 3092 3091 3092 3093 3096 3098 3100 3103 3106 3109 3110 3111 3112 3114 3117 3118 3120 3122 3124 3126 3127 3129 3130 3131 3133 3134 3135 3137 3138 3139 3140
3087 3086 3085 3085 3086 3086 3086 3087 3088 3087 3088 3088 3089 3090 3091 3093 3095 3097 3100 3103 3106 3108 3110 3111 3113 3115 3117 3119 3121 3123 3124 3126 3127 3129 3130 3131 3133 3134 3135 3137 3138 3139
3087 3085 3084 3084 3084 3084 3084 3085 3085 3085 3086 3087 3087 3089 3091 3092 3094 3096 3098 3101 3104 3106 3108 3110 3112 3114 3116 3118 3120 3122 3123 3125 3126 3127 3129 3130 3132 3133 3134 3135 3137 3138
3086 3085 3084 3083 3083 3083 3083 3083 3084 3084 3085 3086 3087 3088 3090 3091 3093 3095 3097 3100 3102 3105 3107 3109 3111 3112 3115 3117 3119 3120 3122 3123 3125 3126 3128 3129 3130 3132 3133 3134 3135 3137
3086 3085 3084 3083 3082 3082 3082 3082 3083 3084 3085 3086 3086 3087 3089 3091 3092 3094 3096 3098 3100 3103 3106 3108 3110 3111 3114 3116 3117 3119 3120 3122 3123 3125 3126 3128 3129 3130 3132 3133 3134 3135
3086 3086 3085 3083 3082 3082 3082 3082 3083 3084 3084 3085 3086 3087 3089 3090 3091 3092 3094 3096 3099 3102 3105 3107 3108 3110 3113 3115 3116 3118 3119 3121 3122 3123 3125 3126 3128 3129 3130 3132 3133 3134
3086 3085 3085 3084 3083 3082 3082 3082 3082 3083 3083 3084 3085 3086 3088 3089 3089 3091 3094 3096 3099 3101 3103 3105 3107 3109 3112 3114 3115 3117 3118 3120 3121 3122 3123 3125 3126 3127 3129 3130 3131 3132
3086 3085 3084 3084 3083 3082 3081 3081 3081 3082 3083 3084 3084 3086 3087 3087 3088 3091 3093 3096 3098 3101 3102 3104 3106 3109 3111 3113 3114 3116 3117 3119 3120 3121 3122 3123 3124 3126 3127 3128 3129 3130
3085 3085 3084 3083 3083 3082 3081 3081 3081 3082 3082 3083 3084 3085 3086 3086 3088 3091 3093 3096 3098 3100 3102 3104 3106 3108 3110 3112 3113 3115 3116 3117 3119 3120 3121 3122 3123 3124 3126 3127 3128 3129
3085 3085 3084 3083 3083 3082 3082 3081 3082 3082 3082 3082 3083 3085 3085 3086 3088 3091 3094 3096 3097 3099 3101 3103 3105 3107 3108 3110 3112 3114 3115 3116 3118 3119 3120 3121 3122 3123 3124 3125 3126 3126
3086 3085 3084 3083 3083 3083 3082 3082 3082 3082 3082 3082 3083 3084 3086 3087 3089 3091 3094 3096 3097 3099 3101 3102 3104 3106 3107 3109 3111 3112 3114 3115 3116 3118 3119 3120 3120 3121 3122 3122 3123 3123